Regional Weather Roundup
Issued by NWS

Home | Current Version | Previous Version | Graphics & Text | Print | Product List | Glossary On
Versions: 1 2 3 4 5 6 7 8 9 10 11 12 13 14 15 16 17 18 19 20 21 22 23 24 25 26 27 28 29 30 31 32 33 34 35 36 37 38 39 40 41 42 43 44 45 46 47 48 49 50
000
ASUS43 KMPX 272201
RWRMN
WEATHER ROUNDUP FOR MINNESOTA
NATIONAL WEATHER SERVICE TWIN CITIES/CHANHASSEN MN
500 PM CDT MON APR 27 2015


NOTE: "FAIR" INDICATES FEW OR NO CLOUDS BELOW 12,000 FEET WITH NO
SIGNIFICANT WEATHER AND/OR OBSTRUCTIONS TO VISIBILITY. N/A MEANS
CURRENT SKY AND/OR WEATHER CONDITIONS ARE NOT AVAILABLE.

MNZ060>063-068>070-272300-
   Twin Cities Metro

CITY           SKY/WX    TMP DP  RH WIND       PRES   REMARKS
TWIN CITIES    MOSUNNY   69  25  19 VRB6      30.16S
ST PAUL        SUNNY     68  23  18 N8        30.16F
CRYSTAL        SUNNY     70  23  17 VRB3      30.15S
BLAINE         SUNNY     70  27  19 NE6       30.15F
LAKEVILLE      SUNNY     64  28  25 NW5       30.16S
EDEN PRAIRIE   SUNNY     68  27  21 N9        30.15F
SOUTH ST PAUL  SUNNY     68  25  19 W7        30.15F
LAKE ELMO      FAIR      68  28  22 N8        30.16F
$$
MNZ001>005-007-008-013>017-022>024-027-028-272300-
   Northwest Minnesota

CITY           SKY/WX    TMP DP  RH WIND       PRES   REMARKS
BEMIDJI        PTSUNNY   69  29  22 E3        30.14S
HALLOCK        CLOUDY    57  39  51 NW16      30.21S
ROSEAU         CLOUDY    64  45  48 NW15      30.16S
WARROAD        PTSUNNY   61  34  36 NE3       30.16S
THIEF RVR FALL MOSUNNY   66  36  32 NW9       30.17S
CROOKSTON      CLOUDY    68  37  32 CALM      30.16S
FOSSTON        FAIR      72  28  20 CALM      30.16F
DETROIT LAKES  MOSUNNY   68  27  21 W6        30.18S
MOORHEAD       MOSUNNY   72  23  16 N3        30.16F
PARK RAPIDS    MOSUNNY   72  24  16 VRB5      30.14F
MAHNOMEN       FAIR      69  27  20 W5        30.16S
$$
MNZ006-009>011-018-025>026-272300-
   North Central Minnesota

CITY           SKY/WX    TMP DP  RH WIND       PRES   REMARKS
BAUDETTE       MOSUNNY   68  30  24 N14       30.14S
FLAG ISLAND    CLOUDY    57  43  58 N12       30.15F
INTL FALLS     PTSUNNY   68  27  21 N8        30.14F
WASKISH        MOSUNNY   68  34  28 SW5       30.14F
BIG FORK       SUNNY     72  25  17 CALM      30.13F
LONGVILLE      SUNNY     70  21  16 CALM      30.15S
GRAND RAPIDS   SUNNY     68  23  18 W5        30.15S
CRANE LAKE     MOSUNNY   64  14  14 N3        30.17S
ORR            MOSUNNY   68  18  14 NW8       30.13S
COOK           SUNNY     66  25  20 CALM      30.15S
WALKER         FAIR      66  28  23 E6        30.15S
$$
MNZ012-019>021-037-272300-
   Northeast Minnesota

CITY           SKY/WX    TMP DP  RH WIND       PRES   REMARKS
DULUTH         SUNNY     68  24  19 N7        30.13F
ELY            SUNNY     64  21  19 CALM      30.15F
HIBBING        MOSUNNY   70  20  15 N9        30.13F
EVELETH        SUNNY     64  23  20 E5        30.15F
DULUTH HARBOR  SUNNY     46  34  61 E5        30.15F
TWO HARBORS    SUNNY     66  37  34 SE9       30.13S
SILVER BAY     SUNNY     61  28  29 SE6       30.14S
GRAND MARAIS     N/A     45  34  65 W9        30.19S
G MARAIS ARPRT SUNNY     54  27  35 S5        30.17S
$$
MNZ029>031-032-039>041-046>048-054>057-064-272300-
   West Central Minnesota

CITY           SKY/WX    TMP DP  RH WIND       PRES   REMARKS
FERGUS FALLS   SUNNY     70  12  11 NW3       30.16F
WHEATON        SUNNY     66  25  20 S3        30.19F
MORRIS         SUNNY     70  21  16 N5        30.17S
ALEXANDRIA     SUNNY     68  22  17 CALM      30.18F
ELBOW LAKE     FAIR      68  24  19 N10       30.17F
WADENA         MOSUNNY   70  32  24 NW14      30.16S
GLENWOOD       SUNNY     70  23  17 NW9       30.18F
APPLETON       SUNNY     72  14  11 NW3       30.17F
BENSON         SUNNY     70  10  10 N5        30.17F
ORTONVILLE     SUNNY     70  18  13 W5        30.17F
MADISON        SUNNY     70  18  13 NE7       30.17F
WILLMAR        FAIR      70  23  17 CALM      30.19F
$$
MNZ033>034-036-042>043-049>051-058-059-272300-
   Central Minnesota

CITY           SKY/WX    TMP DP  RH WIND       PRES   REMARKS
ST CLOUD       SUNNY     70  21  15 VRB3      30.15F
SAUK CENTRE    FAIR      67  26  21 N6        30.17F
PAYNESVILLE    SUNNY     65  23  20 W8        30.18S
AITKIN         SUNNY     72  -2   5 N6        30.13S
PINE RIVER     SUNNY     70  36  28 NW7       30.17F
BRAINERD       SUNNY     70  21  15 N9        30.16S
STAPLES        MOSUNNY   70  21  16 CALM      30.15S
LONG PRAIRIE   FAIR      68  27  21 W3        30.17S
LITTLE FALLS   SUNNY     68  19  15 S3        30.15F
LITCHFIELD     SUNNY     70  25  18 N5        30.17F
BUFFALO        SUNNY     68  22  17 NW7       30.17S
MAPLE LAKE     SUNNY     69  27  21 NW7       30.17F
$$
MNZ037-044-045-052-053-272300-
   East Central Minnesota

CITY           SKY/WX    TMP DP  RH WIND       PRES   REMARKS
PRINCETON      SUNNY     70  21  16 N6        30.16S
MORA           SUNNY     68  23  18 NW7       30.16F
CAMBRIDGE      SUNNY     72  41  33 NW8       30.14S
RUSH CITY      SUNNY     67  24  19 CALM      30.15S
MOOSE LAKE     SUNNY     68  30  24 N5        30.12F
HINCKLEY       FAIR      70  25  18 N7        30.14S
CLOQUET        MOSUNNY   66  18  15 N6        30.14S
MCGREGOR       SUNNY     70  19  14 NE12      30.14F
$$
MNZ071>073-080-081-089-090-097-098-272300-
   Southwest Minnesota

CITY           SKY/WX    TMP DP  RH WIND       PRES   REMARKS
MONTEVIDEO     SUNNY     73  25  16 CALM      30.17F
GRANITE FALLS  SUNNY     69  23  17 NE3       30.18F
CANBY          SUNNY     68  21  16 NW5       30.18F
MARSHALL       SUNNY     70  21  16 E8        30.16F
REDWOOD FALLS  SUNNY     70  20  15 NE7       30.16F
OLIVIA         SUNNY     68  23  18 NW5       30.16F
WORTHINGTON    SUNNY     66  23  19 NE8       30.17S
JACKSON        SUNNY     68  19  15 NE8       30.17S
TRACY          SUNNY     69  23  17 E7        30.17F
SLAYTON        SUNNY     67  17  14 CALM      30.18F
$$
MNZ065>067-074>077-082>085-091>093-272300-
   South Central Minnesota

CITY           SKY/WX    TMP DP  RH WIND       PRES   REMARKS
MANKATO        SUNNY     66  25  20 N8        30.16F
NEW ULM        SUNNY     68  19  15 N9        30.15F
FAIRMONT       SUNNY     68  25  19 E5        30.15F
GLENCOE        SUNNY     69  28  22 N3        30.16F
FARIBAULT      SUNNY     66  27  22 NW5       30.16F
OWATONNA       SUNNY     66  25  20 N5        30.16S
ALBERT LEA     SUNNY     66  25  20 N7        30.15F
$$
MNZ078>079-086>088-094>096-272300-
   Southeast Minnesota

CITY           SKY/WX    TMP DP  RH WIND       PRES   REMARKS
ROCHESTER      SUNNY     65  33  30 N14       30.15F
RED WING       SUNNY     70  21  16 N5        30.13F
STANTON        SUNNY     68  25  19 N7        30.14F
DODGE CENTER   SUNNY     64  28  25 N8        30.15S
WINONA         SUNNY     70  32  24 N3        30.13F
AUSTIN         SUNNY     64  30  27 N9        30.14F
PRESTON        SUNNY     63  33  32 NE12      30.14F
$$
ABBREVIATIONS USED IN REMARKS
   TC - TEMPERATURES IN CELSIUS
  WCI - WIND CHILL INDEX
   HX - HEAT INDEX
  VSB - VISIBILITY
$$



USA.gov is the U.S. government's official web portal to all federal, state and local government web resources and services.